Location: Kershaw
(34.5481°N, 80.5823°W)
Time: 02:12:42
(UTC+00:00)

Altair - Pass Details

Date: 09 October 2022
Orbit: 1501 x 1682 km, 47.2° (Epoch: 01 December)

Event Time Altitude Azimuth Distance (km) Brightness Sun altitude
Rises 12:03:46 0° 292° (WNW) 4,810 9.4 7.4°
Reaches altitude 10° 12:07:09 10° 300° (WNW) 3,850 9.0 8.1°
Maximum altitude 12:16:20 41° 8° (N) 2,259 8.5 9.9°
Drops below altitude 10° 12:25:44 10° 76° (ENE) 3,940 10.9 11.8°
Sets 12:29:14 0° 84° (E) 4,932 11.5 12.5°
